Weather History for KJAX - November, 2012

Change the Weather History Date:

Friday, November 23, 2012

  Actual Average Record
Temperature  
Mean Temperature 53 °F 60 °F  
Max Temperature 72 °F 72 °F 84 °F (1992)
Min Temperature 34 °F 49 °F 28 °F (2000)
Degree Days  
Heating Degree Days 12 6  
Month to date heating degree days 142 97  
Since 1 July heating degree days 174 125  
Cooling Degree Days 0 1  
Month to date cooling degree days 14 52  
Year to date cooling degree days 2743 2635  
Growing Degree Days 3 (Base 50)    
Moisture  
Dew Point 40 °F    
Average Humidity 66    
Maximum Humidity 100    
Minimum Humidity 31    
Precipitation  
Precipitation 0.00 in 0.06 in 2.01 in (1998)
Month to date precipitation 0.25 1.61  
Year to date precipitation 51.08 49.09  
Snow  
Snow 0.00 in 0.00 in 0.00 in (2001)
Month to date snowfall 0.0 0.0  
Since 1 July snowfall 0.0 0.0  
Since 1 September snowfall 0.0 0.0  
Snow Depth 0.00 in    
Sea Level Pressure  
Sea Level Pressure 30.14 in    
Wind  
Wind Speed 4 mph (West)    
Max Wind Speed 12 mph    
Max Gust Speed 16 mph    
Visibility 10 miles    
Events      
T = Trace of Precipitation, MM = Missing Value Source: NWS Daily Summary

Daily Weather History Graph

Daily Weather History Graph

Search for Another Location

Airport or City:

Trip Planner

Search our weather history database for the weather conditions in past years. The results will help you decide how hot, cold, wet, or windy it might be!

Date:

Astronomy

Nov. 23, 2012 Rise Set
Actual Time 6:59 AM EST 5:26 PM EST
Civil Twilight 6:34 AM EST 5:52 PM EST
Nautical Twilight 6:04 AM EST 6:21 PM EST
Astronomical Twilight 5:35 AM EST 6:50 PM EST
Moon 2:26 PM EST (11/23) 2:33 AM EST (11/23)
Length of Visible Light 11h 18m
Length of Day
10h 26m
Waxing Gibbous, 79% of the Moon is Illuminated
Nov 23
Waxing Gibbous
Nov 28
Full
Dec 6
Last Quarter
Dec 13
New
Dec 20
First Quarter

Hourly Weather History & Observations

Time (EST) Temp. Windchill Dew Point Humidity Pressure Visibility Wind Dir Wind Speed Gust Speed Precip Events Conditions
12:56 AM 37.9 °F - 37.0 °F 97% 30.18 in 9.0 mi Calm Calm - 0.00 in   Clear
1:56 AM 37.9 °F - 37.0 °F 97% 30.18 in 9.0 mi Calm Calm - N/A   Clear
2:56 AM 37.0 °F - 35.1 °F 93% 30.17 in 9.0 mi Calm Calm - N/A   Clear
3:56 AM 35.1 °F - 33.1 °F 92% 30.17 in 9.0 mi Calm Calm - N/A   Clear
4:56 AM 35.1 °F - 33.1 °F 92% 30.17 in 9.0 mi Calm Calm - N/A   Clear
5:56 AM 36.0 °F - 34.0 °F 93% 30.18 in 9.0 mi Calm Calm - N/A   Clear
6:56 AM 34.0 °F 31.0 °F 33.1 °F 96% 30.19 in 8.0 mi West 3.5 mph - N/A   Scattered Clouds
7:56 AM 39.0 °F - 37.0 °F 93% 30.21 in 8.0 mi Calm Calm - N/A   Scattered Clouds
8:56 AM 48.9 °F - 39.9 °F 71% 30.22 in 10.0 mi Calm Calm - N/A   Partly Cloudy
9:56 AM 57.9 °F - 41.0 °F 53% 30.22 in 10.0 mi NW 3.5 mph - N/A   Clear
10:56 AM 64.0 °F - 37.0 °F 37% 30.21 in 10.0 mi NW 4.6 mph - N/A   Partly Cloudy
11:56 AM 66.9 °F - 39.0 °F 36% 30.18 in 10.0 mi NW 9.2 mph - N/A   Partly Cloudy
12:56 PM 70.0 °F - 39.9 °F 33% 30.14 in 10.0 mi WNW 11.5 mph - N/A   Partly Cloudy
1:56 PM 71.1 °F - 39.0 °F 31% 30.11 in 10.0 mi NW 8.1 mph - N/A   Partly Cloudy
2:56 PM 72.0 °F - 41.0 °F 33% 30.09 in 10.0 mi West 11.5 mph - N/A   Partly Cloudy
3:56 PM 71.1 °F - 41.0 °F 34% 30.07 in 10.0 mi West 8.1 mph - N/A   Partly Cloudy
4:56 PM 66.0 °F - 44.1 °F 45% 30.07 in 10.0 mi WSW 4.6 mph - N/A   Partly Cloudy
5:56 PM 59.0 °F - 48.0 °F 67% 30.07 in 10.0 mi Calm Calm - N/A   Partly Cloudy
6:56 PM 54.0 °F - 46.9 °F 77% 30.07 in 10.0 mi Calm Calm - N/A   Partly Cloudy
7:56 PM 51.1 °F - 46.0 °F 83% 30.07 in 10.0 mi Calm Calm - N/A   Partly Cloudy
8:56 PM 52.0 °F - 44.1 °F 74% 30.07 in 10.0 mi WSW 5.8 mph - N/A   Partly Cloudy
9:56 PM 50.0 °F - 44.1 °F 80% 30.07 in 10.0 mi WSW 5.8 mph - N/A   Partly Cloudy
10:56 PM 50.0 °F - 45.0 °F 83% 30.06 in 10.0 mi West 8.1 mph - N/A   Partly Cloudy
11:56 PM 48.9 °F - 45.0 °F 86% 30.05 in 10.0 mi WSW 6.9 mph - N/A   Partly Cloudy